Stations météo

réclame
Mon MeteoGroup
Aberdeen/Dyce, Grande-Bretagne (3091): Température de l'air & dewpoint: 10.01.2018 09:00:00 - 16.01.2018 09:00:00 (GMT)Aberdeen/Dyce, Grande-Bretagne (3091): Température de l'air -20cm & Température de l'air -100cm: 10.01.2018 09:00:00 - 16.01.2018 09:00:00 (GMT)Aberdeen/Dyce, Grande-Bretagne (3091): Vitesse du vent & gusts: 10.01.2018 09:00:00 - 16.01.2018 09:00:00 (GMT)Aberdeen/Dyce, Grande-Bretagne (3091): Direction du vent: 10.01.2018 09:00:00 - 16.01.2018 09:00:00 (GMT)Aberdeen/Dyce, Grande-Bretagne (3091): reduced air pressure: 10.01.2018 09:00:00 - 16.01.2018 09:00:00 (GMT)Aberdeen/Dyce, Grande-Bretagne (3091): visibility: 10.01.2018 09:00:00 - 16.01.2018 09:00:00 (GMT)Aberdeen/Dyce, Grande-Bretagne (3091): Ensoleillement: 10.01.2018 09:00:00 - 16.01.2018 09:00:00 (GMT)Aberdeen/Dyce, Grande-Bretagne (3091): Quantités de précipitations: 10.01.2018 09:00:00 - 16.01.2018 09:00:00 (GMT)
Date & Time tt [°C] td [°C] tt -20cm [°C] tt -100cm [°C] ff [km/h] ff [knt] fx [km/h] fx [knt] dd ppp [hPa] vv [km] sd [min] rr [mm]
16.01.2018 09:00:00 1,2 -4,0 - - 16 9 - - WSW 978,4 10 0 0,0
16.01.2018 08:00:00 0,2 -3,6 - - 15 8 - - WSW 978,7 10 0 0,0
16.01.2018 07:00:00 0,5 -3,3 - - 15 8 - - SW 978,2 10 0 0,0
16.01.2018 06:00:00 1,0 -3,2 - - 21 11 - - WSW 978,3 10 0 0,0
16.01.2018 05:00:00 0,6 -3,2 - - 13 7 - - WSW 978,4 10 0 0,0
16.01.2018 04:00:00 0,8 -3,1 - - 15 8 - - SW 978,4 10 0 0,0
16.01.2018 03:00:00 1,2 -3,5 - - 16 9 - - SW 978,3 10 0 0,0
16.01.2018 02:00:00 1,3 -2,6 - - 13 7 - - WSW 978,4 10 0 0,0
16.01.2018 01:00:00 2,1 -2,6 - - 18 10 - - WSW 978,7 10 0 0,0
16.01.2018 00:00:00 1,6 -2,5 - - 16 9 - - SW 978,8 10 - 0,0
15.01.2018 23:00:00 1,6 -2,7 - - 13 7 - - SW 978,5 10 0 0,0
15.01.2018 22:00:00 2,2 -2,1 - - 15 8 - - WSW 978,7 10 0 0,0
15.01.2018 21:00:00 2,5 -1,8 - - 18 10 - - WSW 978,5 10 0 0,0
15.01.2018 20:00:00 3,0 -1,5 - - 18 10 - - W 979,0 10 0 0,0
15.01.2018 19:00:00 2,5 -1,4 - - 11 6 - - WSW 979,4 10 0 0,0
15.01.2018 18:00:00 2,2 -0,9 - - 9 5 - - SSW 979,9 10 0 0,0
15.01.2018 17:00:00 3,3 0,0 - - 11 6 - - SW 980,5 10 0 0,0
15.01.2018 16:00:00 4,9 0,3 - - 21 11 - - W 980,9 10 0 0,0
15.01.2018 15:00:00 5,8 1,3 - - 18 10 - - WSW 981,0 10 6 0,0
15.01.2018 14:00:00 6,3 1,2 - - 21 11 - - W 981,2 10 0 0,0
15.01.2018 13:00:00 6,7 1,1 - - 13 7 - - - 981,9 10 12 0,0
15.01.2018 12:00:00 6,1 1,2 - - 15 8 - - W 982,9 10 36 0,0
15.01.2018 11:00:00 6,1 1,7 - - 8 4 - - SW 983,5 10 60 0,0
15.01.2018 10:00:00 4,9 2,4 - - 11 6 - - WSW 984,3 10 18 0,0
15.01.2018 09:00:00 5,2 2,8 4,2 5,0 8 4 - - WNW 985,0 10 0 0,0
15.01.2018 08:00:00 5,4 3,0 - - 9 5 - - WSW 984,9 10 0 0,0
15.01.2018 07:00:00 5,1 3,4 - - 9 5 - - WSW 985,8 10 0 0,0
15.01.2018 06:00:00 5,5 4,2 - - 4 2 - - - 986,0 10 0 0,0
15.01.2018 05:00:00 5,6 4,9 - - 8 4 - - WSW 986,2 10 0 0,0
15.01.2018 04:00:00 5,6 5,0 - - 13 7 - - S 986,5 10 0 0,0
15.01.2018 03:00:00 6,3 5,6 - - 24 13 - - SSE 987,4 10 0 0,0
15.01.2018 02:00:00 6,1 5,0 - - 26 14 57 31 S 988,2 10 0 -
15.01.2018 01:00:00 5,7 4,6 - - 37 20 70 38 S 989,3 8 0 0,0
15.01.2018 00:00:00 6,0 4,2 - - 50 27 68 37 S 990,6 10 - 0,0
14.01.2018 23:00:00 5,4 4,2 - - 48 26 78 42 S 992,5 7 0 0,0
14.01.2018 22:00:00 5,2 3,7 - - 59 32 85 46 S 993,3 8 0 0,0
14.01.2018 21:00:00 5,1 3,5 - - 52 28 81 44 S 995,6 7 0 0,0
14.01.2018 20:00:00 5,3 3,8 - - 48 26 81 44 S 997,4 6 0 0,2
14.01.2018 19:00:00 5,0 3,6 - - 52 28 80 43 S 998,9 8 0 0,0
14.01.2018 18:00:00 5,1 3,3 - - 54 29 74 40 S 1000,7 6 0 0,0
14.01.2018 17:00:00 5,4 3,0 - - 41 22 67 36 S 1002,6 10 0 0,0
14.01.2018 16:00:00 5,4 3,2 - - 48 26 68 37 S 1003,9 10 0 0,0
14.01.2018 15:00:00 5,1 3,0 - - 41 22 63 34 S 1005,0 10 0 0,0
14.01.2018 14:00:00 5,1 3,4 - - 37 20 57 31 S 1006,7 8 0 0,0
14.01.2018 13:00:00 4,9 3,1 - - 41 22 57 31 S 1008,0 6 0 0,0
14.01.2018 12:00:00 4,7 3,2 - - 41 22 57 31 S 1009,6 6 0 0,0
14.01.2018 11:00:00 4,8 3,0 - - 34 18 50 27 S 1011,0 7 0 0,0
14.01.2018 10:00:00 4,8 3,1 - - 35 19 50 27 S 1012,2 6 0 0,0
14.01.2018 09:00:00 4,7 3,2 4,0 5,0 35 19 59 32 S 1012,7 5 0 0,0
14.01.2018 08:00:00 4,6 3,2 - - 31 17 52 28 S 1013,1 5 0 0,0
14.01.2018 07:00:00 5,0 3,3 - - 39 21 54 29 S 1014,2 5 0 0,0
14.01.2018 06:00:00 5,2 3,3 - - 31 17 57 31 S 1014,7 7 0 0,0
14.01.2018 05:00:00 5,4 3,4 - - 31 17 52 28 S 1014,7 7 0 0,0
14.01.2018 04:00:00 5,4 3,2 - - 26 14 - - S 1015,0 7 0 0,0
14.01.2018 03:00:00 5,6 3,3 - - 26 14 48 26 S 1015,7 8 0 0,0
14.01.2018 02:00:00 5,7 3,4 - - 29 16 57 31 S 1016,0 8 0 0,0
14.01.2018 01:00:00 5,8 3,2 - - 35 19 50 27 S 1016,4 8 0 0,0
14.01.2018 00:00:00 5,8 3,3 - - 34 18 57 31 S 1016,6 8 - 0,0
13.01.2018 23:00:00 5,9 3,5 - - 31 17 - - S 1016,8 8 0 0,0
13.01.2018 22:00:00 5,7 3,3 - - 29 16 54 29 S 1016,8 9 0 0,0
13.01.2018 21:00:00 5,8 2,9 - - 34 18 48 26 S 1016,8 10 0 0,0
13.01.2018 20:00:00 5,7 2,8 - - 31 17 48 26 S 1016,7 10 0 0,0
13.01.2018 19:00:00 5,5 2,1 - - 34 18 67 36 S 1016,3 10 0 0,0
13.01.2018 18:00:00 5,5 2,1 - - 28 15 - - S 1016,6 10 0 0,0
13.01.2018 17:00:00 5,6 2,1 - - 34 18 52 28 S 1016,3 10 0 0,0
13.01.2018 16:00:00 5,7 2,6 - - 28 15 50 27 S 1016,6 10 0 0,0
13.01.2018 15:00:00 6,0 2,2 - - 35 19 52 28 SSE 1016,4 10 0 0,0
13.01.2018 14:00:00 5,9 3,2 - - 39 21 52 28 S 1016,7 10 0 0,0
13.01.2018 13:00:00 6,1 3,2 - - 34 18 52 28 SSE 1017,3 10 0 0,0
13.01.2018 12:00:00 6,0 2,4 - - 37 20 55 30 S 1017,9 10 0 0,0
13.01.2018 11:00:00 6,4 4,8 - - 31 17 - - SSE 1018,4 10 0 0,0
13.01.2018 10:00:00 6,4 3,9 - - 28 15 - - SSE 1018,2 10 0 0,0
13.01.2018 09:00:00 5,8 4,6 3,7 5,0 24 13 46 25 SSE 1018,2 10 0 0,2
13.01.2018 08:00:00 5,5 4,5 - - 26 14 - - S 1018,3 9 0 0,6
13.01.2018 07:00:00 6,1 3,5 - - 28 15 46 25 SSE 1018,4 10 0 0,0
13.01.2018 06:00:00 5,9 3,6 - - 26 14 - - SE 1018,3 10 0 0,0
13.01.2018 05:00:00 5,9 3,6 - - 24 13 - - SSE 1018,6 10 0 0,0
13.01.2018 04:00:00 5,7 3,5 - - 28 15 - - SSE 1019,1 10 0 0,0
13.01.2018 03:00:00 5,8 3,5 - - 28 15 - - S 1019,4 10 0 0,0
13.01.2018 02:00:00 5,8 3,6 - - 26 14 - - SSE 1020,0 10 0 0,0
13.01.2018 01:00:00 5,7 3,7 - - 28 15 - - S 1020,4 10 0 0,0
13.01.2018 00:00:00 5,8 3,9 - - 31 17 - - S 1021,0 10 - 0,0
12.01.2018 23:00:00 5,9 3,8 - - 29 16 - - S 1021,5 10 0 0,0
12.01.2018 22:00:00 6,0 4,1 - - 31 17 50 27 SSE 1021,9 10 0 0,0
12.01.2018 21:00:00 5,8 4,1 - - 28 15 48 26 SSE 1022,5 10 0 0,0
12.01.2018 20:00:00 6,0 4,5 - - 34 18 50 27 S 1022,5 10 0 0,0
12.01.2018 19:00:00 6,4 4,9 - - 34 18 48 26 SSE 1022,6 10 0 0,0
12.01.2018 18:00:00 6,8 5,7 - - 28 15 - - SSE 1022,8 10 0 0,0
12.01.2018 17:00:00 6,8 5,7 - - 29 16 - - SSE 1023,1 10 0 0,0
12.01.2018 16:00:00 6,9 5,6 - - 26 14 - - S 1023,1 10 0 0,0
12.01.2018 15:00:00 7,1 5,4 - - 26 14 - - S 1023,3 10 0 0,0
12.01.2018 14:00:00 7,1 5,9 - - 26 14 - - S 1023,6 10 0 0,0
12.01.2018 13:00:00 7,1 6,6 - - 29 16 - - S 1023,9 10 0 0,0
12.01.2018 12:00:00 7,3 6,9 - - 26 14 - - SSE 1024,3 5 0 0,0
12.01.2018 11:00:00 7,0 6,9 - - 21 11 - - SSE 1025,0 2,6 0 0,0
12.01.2018 10:00:00 6,5 6,4 - - 18 10 - - SSE 1025,2 3,5 0 0,2
12.01.2018 09:00:00 5,4 5,0 3,7 5,0 9 5 - - SSE 1025,6 6 0 0,0
12.01.2018 08:00:00 5,2 4,6 - - 5 3 - - SSE 1025,7 10 0 0,0
12.01.2018 07:00:00 4,7 4,0 - - 8 4 - - SSE 1025,7 10 0 0,0
12.01.2018 06:00:00 4,5 3,5 - - 5 3 - - SSE 1025,6 10 0 0,0
12.01.2018 05:00:00 4,4 3,8 - - 9 5 - - S 1025,7 10 0 0,0
12.01.2018 04:00:00 3,6 3,5 - - 8 4 - - S 1026,1 10 0 0,0
12.01.2018 03:00:00 2,8 2,8 - - 2 1 - - - 1026,3 10 0 0,0
12.01.2018 02:00:00 -1,4 -1,6 - - 2 1 - - - 1026,5 8 0 0,0
12.01.2018 01:00:00 -1,2 -1,4 - - 2 1 - - - 1026,5 10 0 0,0
12.01.2018 00:00:00 0,5 0,5 - - 2 1 - - - 1026,4 10 - 0,0
11.01.2018 23:00:00 -0,2 -0,3 - - 4 2 - - NW 1026,6 10 0 0,0
11.01.2018 22:00:00 -0,1 -0,3 - - 2 1 - - - 1027,0 6 0 0,0
11.01.2018 21:00:00 -0,5 -0,9 - - 2 1 - - NNW 1026,7 10 0 0,0
11.01.2018 20:00:00 0,6 0,0 - - 2 1 - - - 1025,8 10 0 0,0
11.01.2018 19:00:00 1,4 0,3 - - 4 2 - - - 1025,4 10 0 0,0
11.01.2018 18:00:00 2,6 1,6 - - 2 1 - - - 1025,0 10 0 0,0
11.01.2018 17:00:00 5,2 2,7 - - 5 3 - - - 1024,7 10 0 0,0
11.01.2018 16:00:00 5,4 2,8 - - 11 6 - - NW 1024,0 10 0 0,0
11.01.2018 15:00:00 6,7 3,3 - - 9 5 - - NW 1023,2 10 54 0,0
11.01.2018 14:00:00 6,6 3,5 - - 11 6 - - NW 1022,5 10 54 0,0
11.01.2018 13:00:00 6,3 3,5 - - 13 7 - - NNW 1022,0 10 54 0,0
11.01.2018 12:00:00 5,8 3,6 - - 15 8 - - NW 1022,0 30 0 0,0
11.01.2018 11:00:00 5,4 3,2 - - 18 10 - - NW 1021,5 10 0 0,0
11.01.2018 10:00:00 4,6 2,9 - - 16 9 - - NW 1020,5 10 0 0,0
11.01.2018 09:00:00 5,1 3,4 3,5 5,0 16 9 - - NW 1019,7 10 0 0,0
11.01.2018 08:00:00 5,0 3,4 - - 18 10 - - NW 1018,5 10 0 0,0
11.01.2018 07:00:00 5,1 3,4 - - 16 9 - - NW 1017,5 10 0 0,0
11.01.2018 06:00:00 5,0 3,8 - - 21 11 - - WNW 1016,5 10 0 0,0
11.01.2018 05:00:00 5,0 4,0 - - 21 11 - - NW 1015,5 10 0 0,0
11.01.2018 04:00:00 5,1 4,2 - - 24 13 - - WNW 1014,6 10 0 0,0
11.01.2018 03:00:00 5,3 4,2 - - 16 9 - - NW 1014,1 10 0 0,0
11.01.2018 02:00:00 5,2 3,9 - - 16 9 - - NW 1013,4 10 0 -
11.01.2018 01:00:00 3,9 2,6 - - 4 2 - - N 1012,6 10 0 0,0
11.01.2018 00:00:00 4,5 3,1 - - 8 4 - - NNW 1011,8 10 - 0,0
10.01.2018 23:00:00 5,0 3,9 - - 13 7 - - NW 1011,0 10 0 0,0
10.01.2018 22:00:00 5,0 3,9 - - 13 7 - - NNW 1010,1 10 0 0,0
10.01.2018 21:00:00 4,6 3,1 - - 13 7 - - NW 1009,5 10 0 0,2
10.01.2018 20:00:00 4,6 3,2 - - 13 7 - - NW 1008,6 10 0 0,0
10.01.2018 19:00:00 5,0 3,6 - - 11 6 - - NNW 1007,8 10 0 0,2
10.01.2018 18:00:00 5,1 3,8 - - 15 8 - - NW 1007,3 10 0 0,4
10.01.2018 17:00:00 5,3 3,8 - - 13 7 - - NW 1006,7 6 0 0,2
10.01.2018 16:00:00 5,1 4,0 - - 9 5 - - NNW 1005,8 3,6 0 0,0
10.01.2018 15:00:00 5,2 4,3 - - 9 5 - - NW 1005,2 3,7 0 0,2
10.01.2018 14:00:00 5,4 4,3 - - 8 4 - - NW 1004,5 5 0 0,0
10.01.2018 13:00:00 5,6 4,5 - - 8 4 - - NW 1004,3 4,9 0 0,0
10.01.2018 12:00:00 5,1 4,2 - - 8 4 - - NE 1004,1 6 0 0,0
10.01.2018 11:00:00 5,2 4,1 - - 5 3 - - - 1003,9 4,9 0 0,0
10.01.2018 10:00:00 5,4 4,7 - - 9 5 - - SSW 1003,7 5 0 0,0
10.01.2018 09:00:00 5,3 4,6 3,0 5,2 8 4 - - SSE 1003,0 5 0 0,0

tt = Température de l'air
td = dewpoint
tt -20cm = Température de l'air -20cm
tt -100cm = Température de l'air -100cm
ff = Vitesse du vent
fx = gusts
dd = Direction du vent
ppp = reduced air pressure
vv = visibility
sd = Ensoleillement
rr = Quantités de précipitations

stations d'obs. à proximité